Regional Weather Roundup
Issued by NWS

Home | Current Version | Previous Version | Graphics & Text | Print | Product List | Glossary On
Versions: 1 2 3 4 5 6 7 8 9 10 11 12 13 14 15 16 17 18 19 20 21 22 23 24 25 26 27 28 29 30 31 32 33 34 35 36 37 38 39 40 41 42 43 44 45 46 47 48 49 50
000
ASUS45 KTFX 241919
RWRMT
MONTANA HOURLY WEATHER ROUNDUP
NATIONAL WEATHER SERVICE GREAT FALLS MT
119 PM MDT THU JUL 24 2014

NOTE: "FAIR" INDICATES FEW OR NO CLOUDS BELOW 12000 FEET WITH NO
SIGNIFICANT WEATHER AND/OR OBSTRUCTIONS TO VISIBILITY.

* THESE STATIONS ARE NOT UNDER NWS QUALITY CONTROL. THEY DO NOT
   REPORT WEATHER SUCH AS PRECIPITATION OR FOG.

MTZ001>007-043-242000-
WEST OF THE DIVIDE
CITY           SKY/WX    TMP DP  RH WIND       PRES   REMARKS
KALISPELL      PTSUNNY   64  36  35 SW18G23   30.06R
MISSOULA       PTCLDY    66  36  33 W17G30    30.13F
BUTTE          PTCLDY    70  39  32 NW18G30   30.06R
MULLAN PASS    CLOUDY    37  36  96 SW8G18    30.18S WCI  31
* ESSEX        N/A       58  37  46 S9         N/A
* LINCOLN      N/A       56  49  77 SW4G11     N/A
* LOOKOUT PASS N/A       47  38  71 SE9G14     N/A
* POLSON       N/A       62  37  40 SW4G11     N/A
* RONAN APT    PTCLDY    59  46  62 SE9        N/A
* SEELEY LAKE  N/A       57  41  55 W7G19      N/A
* THOMP F APT  SUNNY     75  31  20 S22G32     N/A
$$

MTZ008-052>055-242000-
SOUTHWEST MONTANA
CITY           SKY/WX    TMP DP  RH WIND       PRES   REMARKS
BOZEMAN        PTCLDY    79  48  34 W15       29.93S
DILLON         SUNNY     75  32  21 W24G37    30.00R
W YELLOWSTONE  SUNNY     72  36  27 SW23G37   30.15F
* THREE FORKS  SUNNY     79  61  54 N7         N/A
* BOULDER HILL N/A       71  37  29 S20G31     N/A
* MONIDA PASS  N/A       72  31  22 S26G35     N/A
* RAYNOLDS PAS N/A       72  55  55 S34G42     N/A
* WHITEHALL    N/A       82  47  29 W11G20     N/A
* WISE RIVER   N/A       71  37  29 NW20G34    N/A
$$

MTZ009>010-012-014-046-048-049-054-242000-
EAST SLOPES AND CENTRAL MONTANA
CITY           SKY/WX    TMP DP  RH WIND       PRES   REMARKS
CUT BANK       CLOUDY    61  36  39 W40G59    29.95R
GREAT FALLS    PTSUNNY   70  39  32 W36G45    29.90S
HELENA         PTCLDY    70  45  41 W29G40    29.98R
MALMSTROM AFB  LGT RAIN  75  43  32 W25G46    29.93S
* CONRAD       PTSUNNY   63  46  54 SW22G32    N/A
* DEARBORN     N/A       67  46  47 SW12G23    N/A
* EAST GLACIER N/A       55  35  47 W27G40     N/A
* MONARCH      N/A       68  43  40 NW13G24    N/A
* PENDROY      N/A       63  42  46 W30G40     N/A
* ROGERS PASS  N/A       52  46  80 E14G22     N/A
* SAINT MARY   N/A       58  36  44 SW11G24    N/A
* SWEET GRASS  N/A       64  32  30 W27G44     N/A
* WHITE SULPH  N/A       75  51  43 NW16G26    N/A
$$

MTZ011-013-016-021-035-040-045-047-050-051-242000-
NORTH CENTRAL MONTANA
CITY           SKY/WX    TMP DP  RH WIND       PRES   REMARKS
HAVRE          PTCLDY    81  54  39 NW18      29.80R
LEWISTOWN      SUNNY     79  55  44 NW12G18   29.88S
* FORT BENTON  SUNNY     79  52  39 SW14G25   29.85S
* CHESTER      N/A       71  43  37 NW15G26    N/A
* DENTON       N/A       79  52  39 NW13G22    N/A
* JUDITH GAP   N/A       77  55  47 VRB16      N/A
* LOMA         N/A       80  51  36 SW15G26    N/A
$$

MTZ017>020-022>027-061-062-242000-
NORTHEAST MONTANA
CITY           SKY/WX    TMP DP  RH WIND       PRES   REMARKS
GLASGOW        SUNNY     90  57  33 SE16G22   29.71F
GLENDIVE       CLOUDY    82  63  53 SE15      29.74F HI  83
JORDAN         SUNNY     91  57  32 S7G18     29.72F
SIDNEY         CLOUDY   N/A N/A N/A E14       29.70F
WOLF POINT     PTCLDY    90  59  35 E14       29.70F
* BEAVER HILL  N/A       78  63  60 NE6G19     N/A
* CIRCLE       N/A       84  66  55 SE7        N/A   HI  86
* LINDSAY DVD  N/A       80  62  54 SE17G24    N/A   HI  81
* NAVAJO       N/A       80  63  56 S13G18     N/A   HI  81
$$

MTZ028>042-056>058-242000-
SOUTHCENTRAL AND SOUTHEAST MONTANA
CITY           SKY/WX    TMP DP  RH WIND       PRES   REMARKS
BAKER          SUNNY     84  63  49 SE8       29.79F HI  85
BILLINGS       SUNNY     90  52  27 SW5       29.79F
LIVINGSTON     PTCLDY    90  37  15 W16G28    29.86F
MILES CITY     PTCLDY    91  61  37 SE7       29.73F
* LAUREL APT   SUNNY     90  57  33 N/A        N/A
* ROUNDUP APT  SUNNY     86  55  35 SW7        N/A
* ALZADA       N/A       93  59  32 SE1        N/A
* HYSHAM       N/A       91  57  32 SW2G12     N/A
* LAME DEER    N/A       89  52  28 NW6G12     N/A
* REED POINT   N/A       94  45  18 W20G27     N/A
* ROSCOE HILL  N/A       87  32  14 SW14G30    N/A
$$

REGIONAL REPORTS...DAKOTAS
CITY           SKY/WX    TMP DP  RH WIND       PRES   REMARKS
WILLISTON      PTCLDY    79  63  58 S10       29.80R
DICKINSON      CLOUDY    73  64  74 SE16      29.79F
CROSBY         SUNNY     79  68  69 S8        29.79F
TIOGA          SUNNY     77  68  74 S16G23    29.81F
WATFORD CITY   SUNNY     73  64  74 SW14G23   29.84R
BISMARCK       CLOUDY    77  63  62 SE24G31   29.83F
GRAND FORKS    CLOUDY    73  63  71 S23       29.85F
FARGO          CLOUDY    70  59  68 SE9       29.91F
BUFFALO SD     PTCLDY    84  66  55 S13G21    29.74F HI  86
RAPID CITY     PTSUNNY   88  72  59 NE3       29.80F HI  95
$$

REGIONAL REPORTS...WYOMING/IDAHO/WASHINGTON
CITY           SKY/WX    TMP DP  RH WIND       PRES   REMARKS
GILLETTE       PTCLDY    99  41  13 W21G32    29.85F
SHERIDAN       SUNNY     97  55  24 VRB6      29.82F
YELLOWSTONE LA SUNNY     70  32  25 W9G17     30.27S
SALMON         SUNNY     77  27  16 W20       30.00F
MULLAN PASS    CLOUDY    37  36  96 SW8G18    30.18S WCI  31
SAND POINT     RAIN      55  45  69 SW9       30.11F
SPOKANE        PTSUNNY   63  43  48 SW21G31   30.12F
$$

REGIONAL REPORTS...ALBERTA
CITY           SKY/WX    TMP DP  RH WIND       PRES   REMARKS
CALGARY        SUNNY     68  36  31 NW28G35   29.71R
LETHBRIDGE     PTSUNNY   63  34  34 SW33G45   29.82F
MEDICINE HAT   PTSUNNY   66  59  78 S7        29.81S
EDMONTON       PTCLDY    75  54  48 W8        29.58F
WATERTON GATE  N/A       59  36  42 SW24G40    N/A
CARDSTON       N/A       63  34  34 SW20G36    N/A
MILK RIVER     N/A       68  25  20 W31G41     N/A
$$

REGIONAL REPORTS...SASKATCHEWAN
CITY           SKY/WX    TMP DP  RH WIND       PRES   REMARKS
SWIFT CURRENT  PTSUNNY   75  61  62 S12G17    29.75F
MOOSE JAW      N/A       81  64  56 S9        29.74F HI  83
REGINA         SUNNY     81  64  56 S17       29.76F HI  83
VAL MARIE      N/A       79  61  54 SE5        N/A
ASSINIBOIA     N/A       79  61  54 S9         N/A
CORONACH       N/A       82  61  49 SE12G17    N/A   HI  83

$$




USA.gov is the U.S. government's official web portal to all federal, state and local government web resources and services.